Flag for U.S.A. Weather past 2 weeks in Moscow, Idaho, U.S.A.

Now
61 °F

Overcast.


Feels Like: 61 °F
Forecast: 36 / 68 °F
Wind: 10 mph from South

Location: Pullman / Moscow Regional Airport

Current Time: Sep 3, 2015 at 7:06:27 PM

Latest Report: Sep 3, 2015 at 5:53 PM


Visibility: 10 mi

Pressure: 29.96 "Hg (27.32 "Hg at 781m altitude)

Humidity: 46%

Dew point: 40 °F

Location of MoscowLocation

Historic Weather in Moscow — Graph

°F

Moscow temperature yesterday

Maximum temperature yesterday: 63 °F (at 12:53 AM)
Minimum temperature yesterday: 51 °F (at 9:53 PM)
Average temperature yesterday: 58 °F

Past Weeks' High & Low Weather Summary

 TemperatureHumidityPressure
High90 °F (Aug 26, 2:53 PM)86% (Sep 3, 1:53 AM)30.19 "Hg (Sep 3, 1:53 AM)
Low41 °F (Aug 22, 6:03 AM)12% (Aug 20, 5:53 PM)29.63 "Hg (Aug 29, 4:53 AM)
Average65 °F42%29.93 "Hg
* Reported Aug 19 5:53 PM — Sep 3 5:53 PM, Moscow, Weather by CustomWeather, © 2015

Note: Actual official high and low records may vary slightly from our data, if they occured in-between our weather recording intervals... More about our weather records

Advertising

Moscow weather history for previous 24 hours

 ConditionsComfort  
Time TempWeatherWind HumidityBarometerVisibility
5:53 PM
Thu, Sep 3
61 °FOvercast.10 mph46%29.96 "Hg10 mi
4:53 PM61 °FPartly sunny.7 mph36%29.95 "Hg10 mi
3:53 PM63 °FPartly sunny.6 mph34%29.95 "Hg10 mi
2:53 PM62 °FBroken clouds.3 mph35%29.95 "Hg10 mi
1:53 PM60 °FMostly cloudy.7 mph41%29.97 "Hg10 mi
12:53 PM59 °FPartly sunny.6 mph44%29.97 "Hg10 mi
11:53 AM60 °FOvercast.5 mph46%29.98 "Hg10 mi
10:53 AM57 °FPassing clouds.N/A49%30.00 "Hg10 mi
9:53 AM55 °FPassing clouds.9 mph51%30.00 "Hg10 mi
8:53 AM52 °FMostly cloudy.9 mph64%30.00 "Hg10 mi
7:53 AM51 °FMostly cloudy.12 mph71%29.99 "Hg10 mi
6:53 AM50 °FOvercast.7 mph74%29.97 "Hg10 mi
5:53 AM49 °FPassing clouds.N/A71%29.96 "Hg10 mi
4:53 AM49 °FPassing clouds.10 mph71%29.94 "Hg10 mi
3:53 AM51 °FClear.9 mph63%29.93 "Hg10 mi
2:53 AM54 °FPassing clouds.7 mph62%29.91 "Hg10 mi
1:53 AM50 °FOvercast.No wind86%29.90 "Hg10 mi
12:53 AM53 °FOvercast.No wind77%29.91 "Hg10 mi
11:53 PM
Wed, Sep 2
53 °FOvercast.6 mph77%29.89 "Hg10 mi
10:53 PM51 °FPassing clouds.No wind77%29.89 "Hg10 mi
9:53 PM51 °FPassing clouds.No wind80%29.89 "Hg10 mi
8:53 PM55 °FPassing clouds.6 mph74%29.89 "Hg10 mi
7:53 PM57 °FMostly cloudy.5 mph64%29.89 "Hg10 mi
Weather by CustomWeather, © 2015

See weather overviewHow to use our weather pages